| time (UTC) | temp F | wind direction | speed MPH | gust MPH | rain 1hr in | rain 24hr in | rain mn in | humidity % | barometer mb |
| 20260902070034 | 61 | 145 | 2.0 | 9.0 | 0.00 | 0.00 | 0.00 | 88 | 1020.4 |
| 20260902065531 | 61 | 146 | 2.0 | 9.0 | 0.00 | 0.00 | 0.00 | 88 | 1020.6 |
| 20260902065033 | 61 | 183 | 0.0 | 5.0 | 0.00 | 0.00 | 0.00 | 89 | 1020.7 |
| 20260902063530 | 59 | 12 | 0.0 | 5.0 | 0.00 | 0.00 | 0.00 | 93 | 1020.7 |
| 20260902063031 | 59 | 357 | 0.0 | 5.0 | 0.00 | 0.00 | 0.00 | 94 | 1020.7 |
| 20260902062532 | 58 | 93 | 0.0 | 4.0 | 0.00 | 0.00 | 0.00 | 94 | 1020.7 |
| 20260902062028 | 58 | 93 | 0.0 | 4.0 | 0.00 | 0.00 | 0.00 | 94 | 1020.7 |
| 20260902061525 | 57 | 83 | 0.0 | 5.0 | 0.00 | 0.00 | 0.00 | 94 | 1020.7 |
| 20260902060519 | 56 | 87 | 0.0 | 5.0 | 0.00 | 0.00 | 0.00 | 94 | 1020.7 |
| 20260902060020 | 56 | 77 | 0.0 | 0.0 | 0.00 | 0.00 | 0.00 | 94 | 1020.6 |
| 20260902055515 | 56 | 70 | 0.0 | 0.0 | 0.00 | 0.00 | 0.00 | 94 | 1020.7 |
| 20260902055006 | 56 | 69 | 0.0 | 0.0 | 0.00 | 0.00 | 0.00 | 94 | 1020.8 |
| 20260902054504 | 56 | 60 | 0.0 | 0.0 | 0.00 | 0.00 | 0.00 | 94 | 1020.7 |
| 20260902053504 | 55 | 60 | 0.0 | 0.0 | 0.00 | 0.00 | 0.00 | 93 | 1020.6 |
| 20260902053007 | 55 | 60 | 0.0 | 0.0 | 0.00 | 0.00 | 0.00 | 93 | 1020.4 |
| 20260902052456 | 55 | 60 | 0.0 | 0.0 | 0.00 | 0.00 | 0.00 | 93 | 1020.5 |
| 20260902051441 | 55 | 60 | 0.0 | 0.0 | 0.00 | 0.00 | 0.00 | 93 | 1020.3 |
| 20260902050437 | 55 | 60 | 0.0 | 0.0 | 0.00 | 0.00 | 0.00 | 93 | 1020.2 |
| 20260902045933 | 55 | 60 | 0.0 | 0.0 | 0.00 | 0.00 | 0.00 | 93 | 1020.2 |
| 20260902045432 | 55 | 60 | 0.0 | 0.0 | 0.00 | 0.00 | 0.00 | 93 | 1020.2 |
| 20260902044934 | 55 | 60 | 0.0 | 0.0 | 0.00 | 0.00 | 0.00 | 93 | 1020.2 |
| 20260902043934 | 56 | 60 | 0.0 | 0.0 | 0.00 | 0.00 | 0.00 | 93 | 1020.3 |
| 20260902043432 | 56 | 60 | 0.0 | 0.0 | 0.00 | 0.00 | 0.00 | 93 | 1020.3 |
| 20260902042930 | 56 | 60 | 0.0 | 0.0 | 0.00 | 0.00 | 0.00 | 93 | 1020.2 |
| 20260902042432 | 56 | 60 | 0.0 | 0.0 | 0.00 | 0.00 | 0.00 | 93 | 1020.3 |
| 20260902041932 | 56 | 60 | 0.0 | 0.0 | 0.00 | 0.00 | 0.00 | 93 | 1020.3 |
| 20260902041432 | 56 | 60 | 0.0 | 0.0 | 0.00 | 0.00 | 0.00 | 93 | 1020.3 |
| 20260902040430 | 56 | 60 | 0.0 | 0.0 | 0.00 | 0.00 | 0.00 | 93 | 1020.2 |
| 20260902035932 | 56 | 60 | 0.0 | 0.0 | 0.00 | 0.00 | 0.00 | 92 | 1020.2 |
| 20260902035405 | 56 | 60 | 0.0 | 0.0 | 0.00 | 0.00 | 0.00 | 92 | 1020.1 |
| 20260902034403 | 56 | 60 | 0.0 | 0.0 | 0.00 | 0.00 | 0.00 | 92 | 1020.1 |
| 20260902033405 | 56 | 60 | 0.0 | 0.0 | 0.00 | 0.00 | 0.00 | 92 | 1020.2 |
| 20260902032905 | 57 | 60 | 0.0 | 0.0 | 0.00 | 0.00 | 0.00 | 92 | 1020.3 |
| 20260902032407 | 57 | 60 | 0.0 | 0.0 | 0.00 | 0.00 | 0.00 | 92 | 1020.3 |
| 20260902031905 | 57 | 60 | 0.0 | 0.0 | 0.00 | 0.00 | 0.00 | 92 | 1020.3 |
| 20260902031406 | 57 | 60 | 0.0 | 0.0 | 0.00 | 0.00 | 0.00 | 92 | 1020.4 |
| 20260902030903 | 57 | 60 | 0.0 | 0.0 | 0.00 | 0.00 | 0.00 | 92 | 1020.5 |
| 20260902030407 | 57 | 60 | 0.0 | 0.0 | 0.00 | 0.00 | 0.00 | 92 | 1020.5 |
| 20260902025847 | 57 | 60 | 0.0 | 0.0 | 0.00 | 0.00 | 0.00 | 92 | 1020.5 |
| 20260902025342 | 57 | 60 | 0.0 | 0.0 | 0.00 | 0.00 | 0.00 | 92 | 1020.4 |
| 20260902024833 | 57 | 60 | 0.0 | 0.0 | 0.00 | 0.00 | 0.00 | 92 | 1020.4 |
| 20260902024335 | 57 | 60 | 0.0 | 0.0 | 0.00 | 0.00 | 0.00 | 92 | 1020.6 |
| 20260902023333 | 57 | 60 | 0.0 | 0.0 | 0.00 | 0.00 | 0.00 | 92 | 1020.5 |
| 20260902022332 | 57 | 60 | 0.0 | 0.0 | 0.00 | 0.00 | 0.00 | 93 | 1020.6 |
| 20260902021334 | 57 | 60 | 0.0 | 0.0 | 0.00 | 0.00 | 0.00 | 93 | 1020.7 |
| 20260902020832 | 57 | 60 | 0.0 | 0.0 | 0.00 | 0.00 | 0.00 | 93 | 1020.8 |
| 20260902020333 | 57 | 60 | 0.0 | 0.0 | 0.00 | 0.00 | 0.00 | 92 | 1020.7 |
| 20260902015834 | 57 | 60 | 0.0 | 0.0 | 0.00 | 0.00 | 0.00 | 93 | 1020.6 |
| 20260902015330 | 57 | 60 | 0.0 | 0.0 | 0.00 | 0.00 | 0.00 | 93 | 1020.4 |
| 20260902014832 | 57 | 60 | 0.0 | 0.0 | 0.00 | 0.00 | 0.00 | 93 | 1020.6 |
| 20260902013831 | 57 | 60 | 0.0 | 2.0 | 0.00 | 0.00 | 0.00 | 93 | 1020.7 |
| 20260902013331 | 57 | 60 | 0.0 | 2.0 | 0.00 | 0.00 | 0.00 | 93 | 1020.6 |
| 20260902012835 | 57 | 60 | 0.0 | 0.0 | 0.00 | 0.00 | 0.00 | 93 | 1020.6 |
| 20260902012333 | 57 | 60 | 0.0 | 0.0 | 0.00 | 0.00 | 0.00 | 93 | 1020.7 |
| 20260902011831 | 57 | 60 | 0.0 | 2.0 | 0.00 | 0.00 | 0.00 | 93 | 1020.7 |
| 20260902011332 | 57 | 60 | 0.0 | 4.0 | 0.00 | 0.00 | 0.00 | 93 | 1020.7 |
| 20260902010321 | 57 | 60 | 0.0 | 0.0 | 0.00 | 0.00 | 0.00 | 93 | 1020.7 |
| 20260902005806 | 57 | 60 | 0.0 | 0.0 | 0.00 | 0.00 | 0.00 | 92 | 1020.8 |
| 20260902004308 | 57 | 60 | 0.0 | 0.0 | 0.00 | 0.00 | 0.00 | 92 | 1021.1 |
| 20260902003804 | 57 | 60 | 0.0 | 0.0 | 0.00 | 0.00 | 0.00 | 92 | 1021.2 |
| 20260902002803 | 57 | 60 | 0.0 | 0.0 | 0.00 | 0.00 | 0.00 | 92 | 1020.9 |
| 20260902002306 | 57 | 60 | 0.0 | 0.0 | 0.00 | 0.00 | 0.00 | 92 | 1020.8 |
| 20260902001805 | 57 | 60 | 0.0 | 0.0 | 0.00 | 0.00 | 0.00 | 92 | 1020.7 |
| 20260902000805 | 58 | 60 | 0.0 | 0.0 | 0.00 | 0.00 | 0.00 | 91 | 1020.7 |
| 20260902000304 | 58 | 60 | 0.0 | 0.0 | 0.00 | 0.00 | 0.00 | 91 | 1020.6 |
| 20260901235759 | 58 | 60 | 0.0 | 0.0 | 0.00 | 0.00 | 0.00 | 91 | 1020.7 |
| 20260901235246 | 58 | 60 | 0.0 | 0.0 | 0.00 | 0.00 | 0.00 | 91 | 1020.8 |
| 20260901234746 | 58 | 60 | 0.0 | 0.0 | 0.00 | 0.00 | 0.00 | 91 | 1020.8 |
| 20260901234247 | 58 | 60 | 0.0 | 0.0 | 0.00 | 0.00 | 0.00 | 90 | 1020.9 |
| 20260901233734 | 58 | 60 | 0.0 | 0.0 | 0.00 | 0.00 | 0.00 | 90 | 1020.8 |
| 20260901233236 | 58 | 60 | 0.0 | 0.0 | 0.00 | 0.00 | 0.00 | 90 | 1020.9 |
| 20260901232231 | 58 | 60 | 0.0 | 0.0 | 0.00 | 0.00 | 0.00 | 89 | 1020.9 |
| 20260901231733 | 59 | 60 | 0.0 | 0.0 | 0.00 | 0.00 | 0.00 | 89 | 1021.0 |
| 20260901231232 | 59 | 60 | 0.0 | 0.0 | 0.00 | 0.00 | 0.00 | 89 | 1020.9 |
| 20260901230235 | 59 | 60 | 0.0 | 0.0 | 0.00 | 0.00 | 0.00 | 89 | 1020.8 |
| 20260901225233 | 59 | 60 | 0.0 | 0.0 | 0.00 | 0.00 | 0.00 | 88 | 1020.8 |
| 20260901224732 | 60 | 60 | 0.0 | 0.0 | 0.00 | 0.00 | 0.00 | 88 | 1020.8 |
| 20260901224232 | 60 | 60 | 0.0 | 0.0 | 0.00 | 0.00 | 0.00 | 88 | 1020.8 |
| 20260901223230 | 60 | 60 | 0.0 | 0.0 | 0.00 | 0.00 | 0.00 | 88 | 1020.8 |
| 20260901221732 | 61 | 60 | 0.0 | 0.0 | 0.00 | 0.00 | 0.00 | 87 | 1020.9 |
| 20260901221232 | 61 | 60 | 0.0 | 0.0 | 0.00 | 0.00 | 0.00 | 87 | 1021.0 |
| 20260901220732 | 61 | 60 | 0.0 | 0.0 | 0.00 | 0.00 | 0.00 | 86 | 1020.9 |
| 20260901220231 | 61 | 60 | 0.0 | 0.0 | 0.00 | 0.00 | 0.00 | 86 | 1020.9 |
| 20260901215732 | 61 | 60 | 0.0 | 0.0 | 0.00 | 0.00 | 0.00 | 86 | 1021.0 |
| 20260901214732 | 62 | 60 | 0.0 | 0.0 | 0.00 | 0.00 | 0.00 | 86 | 1021.1 |
| 20260901214231 | 62 | 60 | 0.0 | 0.0 | 0.00 | 0.00 | 0.00 | 86 | 1021.1 |
| 20260901213731 | 62 | 60 | 0.0 | 0.0 | 0.00 | 0.00 | 0.00 | 86 | 1021.0 |
| 20260901213225 | 62 | 60 | 0.0 | 0.0 | 0.00 | 0.00 | 0.00 | 86 | 1021.1 |
| 20260901212724 | 62 | 60 | 0.0 | 0.0 | 0.00 | 0.00 | 0.00 | 86 | 1021.1 |
| 20260901212227 | 62 | 60 | 0.0 | 0.0 | 0.00 | 0.00 | 0.00 | 86 | 1021.3 |
| 20260901211719 | 62 | 60 | 0.0 | 0.0 | 0.00 | 0.00 | 0.00 | 86 | 1021.3 |
| 20260901211206 | 62 | 60 | 0.0 | 0.0 | 0.00 | 0.00 | 0.00 | 86 | 1021.3 |
| 20260901210706 | 62 | 60 | 0.0 | 0.0 | 0.00 | 0.00 | 0.00 | 86 | 1021.5 |
| 20260901210203 | 62 | 60 | 0.0 | 0.0 | 0.00 | 0.00 | 0.00 | 86 | 1021.4 |
| 20260901205706 | 62 | 60 | 0.0 | 0.0 | 0.00 | 0.00 | 0.00 | 86 | 1021.5 |
| 20260901204702 | 62 | 60 | 0.0 | 0.0 | 0.00 | 0.00 | 0.00 | 86 | 1021.3 |
| 20260901204206 | 62 | 60 | 0.0 | 0.0 | 0.00 | 0.00 | 0.00 | 85 | 1021.4 |
| 20260901203204 | 62 | 60 | 0.0 | 0.0 | 0.00 | 0.00 | 0.00 | 85 | 1021.3 |
| 20260901202704 | 62 | 60 | 0.0 | 0.0 | 0.00 | 0.00 | 0.00 | 85 | 1021.4 |
| 20260901202204 | 62 | 60 | 0.0 | 0.0 | 0.00 | 0.00 | 0.00 | 84 | 1021.2 |
| 20260901201704 | 62 | 60 | 0.0 | 0.0 | 0.00 | 0.00 | 0.00 | 84 | 1021.2 |
| 20260901201205 | 62 | 60 | 0.0 | 0.0 | 0.00 | 0.00 | 0.00 | 84 | 1021.1 |
| 20260901200705 | 63 | 60 | 0.0 | 0.0 | 0.00 | 0.00 | 0.00 | 84 | 1021.1 |
| 20260901200207 | 63 | 60 | 0.0 | 0.0 | 0.00 | 0.00 | 0.00 | 84 | 1021.0 |
| 20260901195704 | 63 | 60 | 0.0 | 2.0 | 0.00 | 0.00 | 0.00 | 84 | 1021.1 |
| 20260901195156 | 63 | 60 | 0.0 | 2.0 | 0.00 | 0.00 | 0.00 | 83 | 1021.1 |
| 20260901194644 | 63 | 60 | 0.0 | 0.0 | 0.00 | 0.00 | 0.00 | 83 | 1021.0 |
| 20260901193138 | 64 | 60 | 0.0 | 0.0 | 0.00 | 0.00 | 0.00 | 82 | 1020.9 |
| 20260901192131 | 64 | 60 | 0.0 | 2.0 | 0.00 | 0.00 | 0.00 | 81 | 1020.8 |
| 20260901191634 | 65 | 60 | 0.0 | 2.0 | 0.00 | 0.00 | 0.00 | 81 | 1020.7 |
| 20260901191132 | 65 | 60 | 0.0 | 0.0 | 0.00 | 0.00 | 0.00 | 81 | 1020.7 |
| 20260901190634 | 65 | 60 | 0.0 | 0.0 | 0.00 | 0.00 | 0.00 | 80 | 1020.7 |
| 20260901190132 | 66 | 60 | 0.0 | 0.0 | 0.00 | 0.00 | 0.00 | 80 | 1020.7 |
| 20260901185632 | 66 | 60 | 0.0 | 0.0 | 0.00 | 0.00 | 0.00 | 80 | 1020.7 |
| 20260901185134 | 66 | 60 | 0.0 | 0.0 | 0.00 | 0.00 | 0.00 | 79 | 1020.6 |
| 20260901184135 | 67 | 60 | 2.0 | 4.0 | 0.00 | 0.00 | 0.00 | 78 | 1020.4 |
| 20260901183630 | 68 | 60 | 0.0 | 4.0 | 0.00 | 0.00 | 0.00 | 77 | 1020.2 |
| 20260901183131 | 68 | 60 | 0.0 | 0.0 | 0.00 | 0.00 | 0.00 | 73 | 1020.3 |
| 20260901182631 | 68 | 60 | 0.0 | 0.0 | 0.00 | 0.00 | 0.00 | 72 | 1020.2 |
| 20260901182132 | 69 | 60 | 0.0 | 0.0 | 0.00 | 0.00 | 0.00 | 72 | 1020.3 |
| 20260901181633 | 69 | 60 | 0.0 | 0.0 | 0.00 | 0.00 | 0.00 | 71 | 1020.3 |
| 20260901181124 | 69 | 60 | 0.0 | 2.0 | 0.00 | 0.00 | 0.00 | 71 | 1020.4 |
| 20260901180619 | 69 | 60 | 0.0 | 2.0 | 0.00 | 0.00 | 0.00 | 70 | 1020.4 |
| 20260901180117 | 70 | 60 | 0.0 | 2.0 | 0.00 | 0.00 | 0.00 | 69 | 1020.3 |
| 20260901175614 | 70 | 60 | 0.0 | 2.0 | 0.00 | 0.00 | 0.00 | 69 | 1020.4 |
| 20260901175111 | 70 | 60 | 0.0 | 2.0 | 0.00 | 0.00 | 0.00 | 69 | 1020.4 |
| 20260901174606 | 70 | 60 | 0.0 | 2.0 | 0.00 | 0.00 | 0.00 | 68 | 1020.4 |
| 20260901173104 | 71 | 60 | 0.0 | 4.0 | 0.00 | 0.00 | 0.00 | 67 | 1020.4 |
| 20260901172605 | 71 | 60 | 0.0 | 4.0 | 0.00 | 0.00 | 0.00 | 67 | 1020.4 |
| 20260901171606 | 71 | 60 | 0.0 | 2.0 | 0.00 | 0.00 | 0.00 | 67 | 1020.2 |
| 20260901170603 | 72 | 60 | 0.0 | 2.0 | 0.00 | 0.00 | 0.00 | 66 | 1020.3 |
| 20260901170105 | 72 | 60 | 0.0 | 2.0 | 0.00 | 0.00 | 0.00 | 66 | 1020.2 |
| 20260901165544 | 72 | 60 | 0.0 | 4.0 | 0.00 | 0.00 | 0.00 | 65 | 1020.3 |
| 20260901164540 | 73 | 60 | 2.0 | 5.0 | 0.00 | 0.00 | 0.00 | 65 | 1020.3 |
| 20260901164037 | 73 | 60 | 2.0 | 5.0 | 0.00 | 0.00 | 0.00 | 64 | 1020.2 |
| 20260901163538 | 74 | 334 | 2.0 | 9.0 | 0.00 | 0.00 | 0.00 | 63 | 1020.2 |
| 20260901163037 | 74 | 71 | 2.0 | 9.0 | 0.00 | 0.00 | 0.00 | 62 | 1020.2 |
| 20260901162534 | 74 | 261 | 4.0 | 12.0 | 0.00 | 0.00 | 0.00 | 60 | 1020.2 |
| 20260901162035 | 74 | 257 | 4.0 | 12.0 | 0.00 | 0.00 | 0.00 | 58 | 1020.1 |
| 20260901161532 | 74 | 234 | 5.0 | 16.0 | 0.00 | 0.00 | 0.00 | 59 | 1020.1 |
| 20260901161035 | 74 | 228 | 5.0 | 16.0 | 0.00 | 0.00 | 0.00 | 59 | 1020.2 |
| 20260901160535 | 74 | 280 | 4.0 | 12.0 | 0.00 | 0.00 | 0.00 | 61 | 1020.1 |
| 20260901160033 | 74 | 274 | 4.0 | 12.0 | 0.00 | 0.00 | 0.00 | 61 | 1020.2 |
| 20260901155532 | 74 | 262 | 2.0 | 12.0 | 0.00 | 0.00 | 0.00 | 61 | 1020.1 |
| 20260901154536 | 73 | 277 | 2.0 | 11.0 | 0.00 | 0.00 | 0.00 | 62 | 1020.1 |
| 20260901154035 | 73 | 284 | 2.0 | 11.0 | 0.00 | 0.00 | 0.00 | 61 | 1020.2 |
| 20260901153532 | 74 | 269 | 4.0 | 9.0 | 0.00 | 0.00 | 0.00 | 62 | 1020.2 |
| 20260901153030 | 73 | 322 | 4.0 | 9.0 | 0.00 | 0.00 | 0.00 | 62 | 1020.1 |
| 20260901152532 | 73 | 253 | 4.0 | 14.0 | 0.00 | 0.00 | 0.00 | 62 | 1020.1 |
| 20260901152031 | 72 | 216 | 4.0 | 14.0 | 0.00 | 0.00 | 0.00 | 62 | 1020.3 |
| 20260901151533 | 73 | 66 | 5.0 | 16.0 | 0.00 | 0.00 | 0.00 | 61 | 1020.1 |
| 20260901150532 | 75 | 270 | 2.0 | 12.0 | 0.00 | 0.00 | 0.00 | 61 | 1020.2 |
| 20260901150033 | 74 | 275 | 4.0 | 16.0 | 0.00 | 0.00 | 0.00 | 62 | 1020.2 |
| 20260901145533 | 74 | 304 | 2.0 | 16.0 | 0.00 | 0.00 | 0.00 | 63 | 1020.3 |
| 20260901145033 | 73 | 301 | 4.0 | 11.0 | 0.00 | 0.00 | 0.00 | 65 | 1020.3 |
| 20260901144525 | 72 | 270 | 4.0 | 18.0 | 0.00 | 0.00 | 0.00 | 66 | 1020.3 |
| 20260901144024 | 72 | 285 | 4.0 | 18.0 | 0.00 | 0.00 | 0.00 | 65 | 1020.3 |
| 20260901143021 | 73 | 270 | 2.0 | 9.0 | 0.00 | 0.00 | 0.00 | 64 | 1020.3 |
| 20260901142022 | 72 | 70 | 4.0 | 14.0 | 0.00 | 0.00 | 0.00 | 66 | 1020.2 |
| 20260901141518 | 72 | 271 | 4.0 | 14.0 | 0.00 | 0.00 | 0.00 | 66 | 1020.3 |
| 20260901141021 | 72 | 289 | 4.0 | 14.0 | 0.00 | 0.01 | 0.00 | 65 | 1020.4 |
| 20260901140518 | 73 | 332 | 4.0 | 14.0 | 0.00 | 0.01 | 0.00 | 64 | 1020.3 |
| 20260901135520 | 74 | 6 | 2.0 | 9.0 | 0.00 | 0.01 | 0.00 | 64 | 1020.4 |
| 20260901135016 | 72 | 285 | 2.0 | 9.0 | 0.00 | 0.01 | 0.00 | 65 | 1020.4 |
| 20260901134512 | 73 | 85 | 2.0 | 7.0 | 0.00 | 0.01 | 0.00 | 66 | 1020.4 |
| 20260901134009 | 73 | 83 | 4.0 | 11.0 | 0.00 | 0.01 | 0.00 | 65 | 1020.4 |
| 20260901133511 | 73 | 153 | 4.0 | 11.0 | 0.00 | 0.01 | 0.00 | 65 | 1020.4 |
| 20260901133011 | 73 | 200 | 4.0 | 18.0 | 0.00 | 0.01 | 0.00 | 64 | 1020.4 |
| 20260901132504 | 73 | 320 | 5.0 | 18.0 | 0.00 | 0.01 | 0.00 | 65 | 1020.4 |
| 20260901132002 | 72 | 321 | 4.0 | 14.0 | 0.00 | 0.01 | 0.00 | 66 | 1020.6 |
| 20260901131503 | 72 | 244 | 2.0 | 12.0 | 0.00 | 0.01 | 0.00 | 66 | 1020.6 |
| 20260901131005 | 73 | 275 | 0.0 | 12.0 | 0.00 | 0.01 | 0.00 | 66 | 1020.6 |
| 20260901130002 | 74 | 279 | 0.0 | 5.0 | 0.00 | 0.01 | 0.00 | 63 | 1020.6 |
| 20260901125502 | 75 | 72 | 2.0 | 5.0 | 0.00 | 0.01 | 0.00 | 62 | 1020.5 |
| 20260901123958 | 73 | 80 | 2.0 | 5.0 | 0.00 | 0.01 | 0.00 | 66 | 1020.7 |
| 20260901123456 | 73 | 80 | 2.0 | 5.0 | 0.00 | 0.01 | 0.00 | 65 | 1020.6 |
| 20260901123000 | 73 | 80 | 2.0 | 5.0 | 0.00 | 0.01 | 0.00 | 66 | 1020.7 |
| 20260901122458 | 72 | 299 | 2.0 | 4.0 | 0.00 | 0.01 | 0.00 | 68 | 1020.7 |
| 20260901121955 | 70 | 299 | 2.0 | 5.0 | 0.00 | 0.01 | 0.00 | 70 | 1020.6 |
| 20260901120944 | 71 | 280 | 5.0 | 16.0 | 0.00 | 0.01 | 0.00 | 69 | 1020.6 |
| 20260901115441 | 72 | 295 | 7.0 | 16.0 | 0.00 | 0.01 | 0.00 | 71 | 1020.6 |
| 20260901114436 | 74 | 264 | 5.0 | 16.0 | 0.00 | 0.01 | 0.00 | 68 | 1020.6 |
| 20260901113936 | 74 | 172 | 4.0 | 11.0 | 0.00 | 0.01 | 0.00 | 67 | 1020.3 |
| 20260901113433 | 74 | 214 | 4.0 | 11.0 | 0.00 | 0.01 | 0.00 | 68 | 1020.6 |
| 20260901112934 | 73 | 272 | 5.0 | 14.0 | 0.00 | 0.01 | 0.00 | 70 | 1020.6 |
| 20260901112433 | 72 | 299 | 5.0 | 16.0 | 0.00 | 0.01 | 0.00 | 72 | 1020.7 |
| 20260901111932 | 72 | 147 | 4.0 | 16.0 | 0.00 | 0.01 | 0.00 | 70 | 1020.7 |
| 20260901111432 | 73 | 341 | 5.0 | 16.0 | 0.00 | 0.01 | 0.00 | 70 | 1020.6 |
| 20260901110939 | 72 | 175 | 5.0 | 16.0 | 0.00 | 0.02 | 0.00 | 70 | 1020.7 |
| 20260901110430 | 72 | 112 | 4.0 | 14.0 | 0.00 | 0.02 | 0.00 | 70 | 1020.7 |
| 20260901105932 | 72 | 359 | 5.0 | 16.0 | 0.00 | 0.03 | 0.00 | 71 | 1020.7 |
| 20260901105432 | 72 | 139 | 5.0 | 16.0 | 0.00 | 0.04 | 0.00 | 71 | 1020.7 |
| 20260901104931 | 71 | 131 | 5.0 | 22.0 | 0.00 | 0.04 | 0.00 | 71 | 1020.7 |
| 20260901104432 | 71 | 291 | 7.0 | 22.0 | 0.00 | 0.04 | 0.00 | 70 | 1020.7 |
| 20260901103932 | 72 | 43 | 4.0 | 20.0 | 0.00 | 0.04 | 0.00 | 69 | 1020.6 |
| 20260901103430 | 72 | 288 | 4.0 | 12.0 | 0.00 | 0.04 | 0.00 | 71 | 1020.7 |
| 20260901102432 | 72 | 255 | 2.0 | 5.0 | 0.00 | 0.04 | 0.00 | 73 | 1020.7 |
| 20260901101931 | 71 | 255 | 2.0 | 12.0 | 0.00 | 0.04 | 0.00 | 75 | 1020.8 |
| 20260901101441 | 70 | 250 | 2.0 | 12.0 | 0.00 | 0.04 | 0.00 | 77 | 1020.8 |
| 20260901100933 | 69 | 297 | 2.0 | 7.0 | 0.00 | 0.04 | 0.00 | 75 | 1020.7 |
| 20260901100432 | 69 | 287 | 4.0 | 11.0 | 0.00 | 0.04 | 0.00 | 75 | 1020.8 |
| 20260901095933 | 69 | 282 | 4.0 | 11.0 | 0.00 | 0.04 | 0.00 | 75 | 1020.8 |
| 20260901095430 | 70 | 271 | 2.0 | 12.0 | 0.00 | 0.04 | 0.00 | 77 | 1020.9 |
| 20260901094931 | 69 | 290 | 2.0 | 12.0 | 0.00 | 0.05 | 0.00 | 78 | 1020.9 |
| 20260901094431 | 68 | 261 | 0.0 | 5.0 | 0.00 | 0.09 | 0.00 | 80 | 1020.9 |
| 20260901093428 | 68 | 287 | 4.0 | 11.0 | 0.00 | 0.09 | 0.00 | 80 | 1020.9 |
| 20260901092927 | 68 | 297 | 4.0 | 11.0 | 0.00 | 0.09 | 0.00 | 81 | 1020.7 |
| 20260901092429 | 68 | 281 | 4.0 | 12.0 | 0.00 | 0.09 | 0.00 | 81 | 1020.7 |
| 20260901091928 | 69 | 298 | 4.0 | 12.0 | 0.00 | 0.09 | 0.00 | 81 | 1020.7 |
| 20260901090932 | 68 | 332 | 4.0 | 11.0 | 0.00 | 0.09 | 0.00 | 85 | 1020.8 |
| 20260901085927 | 66 | 284 | 4.0 | 11.0 | 0.00 | 0.09 | 0.00 | 87 | 1020.7 |
| 20260901085424 | 66 | 289 | 4.0 | 11.0 | 0.00 | 0.09 | 0.00 | 87 | 1020.7 |
| 20260901084926 | 66 | 323 | 4.0 | 11.0 | 0.00 | 0.09 | 0.00 | 88 | 1020.7 |
| 20260901083925 | 65 | 356 | 2.0 | 12.0 | 0.00 | 0.09 | 0.00 | 90 | 1020.7 |
| 20260901083424 | 64 | 284 | 4.0 | 12.0 | 0.00 | 0.09 | 0.00 | 90 | 1020.6 |
| 20260901082924 | 64 | 310 | 4.0 | 12.0 | 0.00 | 0.09 | 0.00 | 91 | 1020.5 |
| 20260901082416 | 64 | 293 | 4.0 | 14.0 | 0.00 | 0.09 | 0.00 | 91 | 1020.5 |
| 20260901081919 | 64 | 299 | 4.0 | 14.0 | 0.00 | 0.09 | 0.00 | 91 | 1020.4 |
| 20260901081417 | 64 | 288 | 4.0 | 12.0 | 0.00 | 0.09 | 0.00 | 91 | 1020.3 |
| 20260901080916 | 64 | 282 | 4.0 | 11.0 | 0.00 | 0.09 | 0.00 | 92 | 1020.3 |
| 20260901080419 | 64 | 276 | 4.0 | 11.0 | 0.00 | 0.09 | 0.00 | 92 | 1020.2 |
| 20260901075917 | 63 | 280 | 4.0 | 12.0 | 0.00 | 0.09 | 0.00 | 93 | 1020.2 |
| 20260901075414 | 63 | 313 | 4.0 | 12.0 | 0.00 | 0.09 | 0.00 | 93 | 1020.2 |
| 20260901074914 | 63 | 294 | 4.0 | 11.0 | 0.00 | 0.09 | 0.00 | 93 | 1020.2 |
| 20260901074415 | 63 | 280 | 5.0 | 11.0 | 0.00 | 0.09 | 0.00 | 93 | 1020.0 |
| 20260901073915 | 63 | 289 | 5.0 | 12.0 | 0.00 | 0.09 | 0.00 | 93 | 1020.0 |
| 20260901073410 | 63 | 291 | 4.0 | 12.0 | 0.00 | 0.09 | 0.00 | 94 | 1019.9 |
| 20260901072914 | 63 | 277 | 2.0 | 9.0 | 0.00 | 0.09 | 0.00 | 94 | 1019.9 |
| 20260901072415 | 63 | 289 | 2.0 | 7.0 | 0.00 | 0.09 | 0.00 | 94 | 1019.8 |
| 20260901071407 | 62 | 298 | 2.0 | 5.0 | 0.00 | 0.09 | 0.00 | 95 | 1019.7 |
| 20260901070907 | 62 | 306 | 2.0 | 12.0 | 0.00 | 0.09 | 0.00 | 95 | 1019.7 |
| 20260901070403 | 62 | 288 | 4.0 | 12.0 | 0.00 | 0.09 | 0.00 | 94 | 1019.6 |